This demonstration page uses our WeatherBlox Daily Observations layout. Learn more.

Hourly Observations for May 4, 2015

Temp ( °F °C ) Dew Point ( °F °C ) Humidity (%) Winds ( mph kmh ) Pressure ( in mb ) Visibility ( mi km ) Precip ( " mm )
12:15 am 00:15 Partly Cloudy 63 17 41 5 45 45 NNE 17 28 29.88 1012 10 16.09344 0 0
12:35 am 00:35 Mostly Cloudy 63 17 41 5 45 45 NNE 17 28 29.88 1012 10 16.09344 0 0
12:55 am 00:55 Partly Cloudy 61 16 41 5 48 48 NNE 20 31 29.88 1012 10 16.09344 0 0
1:15 am 01:15 Mostly Cloudy 61 16 39 4 45 45 NNE 18 30 29.88 1012 10 16.09344 0 0
1:35 am 01:35 Partly Cloudy 61 16 39 4 45 45 NNE 20 31 29.88 1012 10 16.09344 0 0
1:55 am 01:55 Partly Cloudy 61 16 39 4 45 45 NE 18 30 29.88 1012 10 16.09344 0 0
2:15 am 02:15 Mostly Cloudy 61 16 39 4 45 45 NNE 20 31 29.88 1012 10 16.09344 0 0
2:35 am 02:35 Partly Cloudy 61 16 37 3 42 42 NNE 25 41 29.88 1012 10 16.09344 0 0
2:55 am 02:55 Mostly Cloudy with Nearby Thunderstorms 61 16 39 4 45 45 NNE 8 13 29.94 1014 10 16.09344 0 0
3:15 am 03:15 Cloudy with Nearby Thunderstorms 59 15 41 5 51 51 N 8 13 30 1016 10 16.09344 0.01 0.254
3:35 am 03:35 Cloudy with Light Thunderstorms 55 13 43 6 63 63 N 16 26 30 1016 10 16.09344 0.04 1.016
3:55 am 03:55 Cloudy with Light Rain 55 13 43 6 63 63 NNE 25 41 29.97 1015 10 16.09344 0.05 1.27
4:15 am 04:15 Cloudy with Light Rain 55 13 43 6 63 63 N 23 37 29.94 1014 10 16.09344 0.01 0.254
4:35 am 04:35 Mostly Cloudy with Light Drizzle 55 13 45 7 67 67 NNE 23 37 29.94 1014 10 16.09344 0.01 0.254
4:55 am 04:55 Partly Cloudy 55 13 45 7 67 67 ENE 16 26 29.97 1015 10 16.09344 0.01 0.254
5:15 am 05:15 Partly Cloudy 54 12 45 7 72 72 ENE 12 19 30 1016 10 16.09344 0 0
5:35 am 05:35 Partly Cloudy 55 13 45 7 67 67 NNE 12 19 29.97 1015 10 16.09344 0 0
5:55 am 05:55 Clear 54 12 46 8 77 77 N 16 26 29.97 1015 10 16.09344 0 0
6:15 am 06:15 Clear 54 12 45 7 72 72 NE 15 24 30 1016 10 16.09344 0 0
6:35 am 06:35 Sunny 54 12 45 7 72 72 NE 15 24 30 1016 10 16.09344 0 0
6:55 am 06:55 Sunny 54 12 46 8 77 77 NE 12 19 30 1016 10 16.09344 0 0
7:15 am 07:15 Mostly Cloudy 54 12 45 7 72 72 NE 14 22 30 1016 10 16.09344 0 0
7:35 am 07:35 Cloudy 54 12 45 7 72 72 NE 14 22 30.03 1017 10 16.09344 0 0
7:55 am 07:55 Cloudy 54 12 43 6 67 67 NNE 9 15 30.06 1018 10 16.09344 0 0
8:15 am 08:15 Cloudy 54 12 45 7 72 72 N 6 9 30.06 1018 10 16.09344 0 0
8:35 am 08:35 Cloudy 54 12 43 6 67 67 N 7 11 30.06 1018 10 16.09344 0 0
8:55 am 08:55 Cloudy 54 12 45 7 72 72 N 9 15 30.06 1018 10 16.09344 0 0
9:15 am 09:15 Cloudy 55 13 43 6 63 63 NNE 9 15 30.06 1018 10 16.09344 0 0
9:35 am 09:35 Cloudy 55 13 41 5 59 59 NE 14 22 30.06 1018 10 16.09344 0 0
9:55 am 09:55 Cloudy 55 13 43 6 63 63 NE 13 20 30.09 1019 10 16.09344 0 0
10:15 am 10:15 Cloudy 55 13 43 6 63 63 NE 14 22 30.09 1019 10 16.09344 0 0
10:35 am 10:35 Cloudy with Light Drizzle 55 13 45 7 67 67 NE 14 22 30.09 1019 10 16.09344 0 0
10:55 am 10:55 Cloudy 57 14 43 6 59 59 NE 14 22 30.06 1018 10 16.09344 0 0
11:15 am 11:15 Cloudy 57 14 43 6 59 59 NE 18 30 30.06 1018 10 16.09344 0 0
11:35 am 11:35 Cloudy 57 14 43 6 59 59 NE 17 28 30.06 1018 10 16.09344 0 0
11:55 am 11:55 Cloudy 59 15 43 6 55 55 NE 18 30 30.06 1018 10 16.09344 0 0
12:15 pm 12:15 Cloudy 59 15 43 6 55 55 NE 17 28 30.06 1018 10 16.09344 0 0
12:35 pm 12:35 Cloudy 57 14 43 6 59 59 NE 14 22 30.06 1018 10 16.09344 0 0
12:55 pm 12:55 Cloudy with Rain 57 14 43 6 59 59 ENE 12 19 30.06 1018 10 16.09344 0 0
1:15 pm 13:15 Cloudy with Light Rain 55 13 46 8 72 72 ENE 10 17 30.09 1019 10 16.09344 0 0
1:35 pm 13:35 Cloudy with Light Rain 55 13 48 9 77 77 NE 16 26 30.09 1019 10 16.09344 0.01 0.254
1:55 pm 13:55 Cloudy 55 13 48 9 77 77 ENE 15 24 30.09 1019 10 16.09344 0.01 0.254
2:15 pm 14:15 Cloudy 55 13 48 9 77 77 NE 15 24 30.09 1019 10 16.09344 0 0
2:35 pm 14:35 Cloudy 55 13 48 9 77 77 NNE 13 20 30.09 1019 10 16.09344 0 0
2:55 pm 14:55 Cloudy 55 13 48 9 77 77 NE 14 22 30.09 1019 10 16.09344 0 0
3:15 pm 15:15 Cloudy 55 13 48 9 77 77 NE 14 22 30.09 1019 10 16.09344 0 0
3:35 pm 15:35 Cloudy 55 13 48 9 77 77 NE 12 19 30.09 1019 10 16.09344 0 0
3:55 pm 15:55 Cloudy 55 13 48 9 77 77 NE 13 20 30.09 1019 10 16.09344 0 0
4:15 pm 16:15 Cloudy 55 13 48 9 77 77 NE 12 19 30.09 1019 10 16.09344 0 0
4:35 pm 16:35 Cloudy 54 12 48 9 82 82 NE 12 19 30.09 1019 10 16.09344 0 0
4:55 pm 16:55 Cloudy 55 13 48 9 77 77 NNE 15 24 30.06 1018 10 16.09344 0 0
5:15 pm 17:15 Cloudy 54 12 48 9 82 82 NNE 16 26 30.06 1018 10 16.09344 0 0
5:35 pm 17:35 Cloudy 54 12 48 9 82 82 NE 17 28 30.06 1018 10 16.09344 0 0
5:55 pm 17:55 Cloudy 55 13 50 10 82 82 NNE 20 31 30.06 1018 10 16.09344 0 0
6:15 pm 18:15 Cloudy 55 13 50 10 82 82 NE 21 33 30.06 1018 10 16.09344 0 0
6:35 pm 18:35 Cloudy 55 13 50 10 82 82 NE 18 30 30.06 1018 10 16.09344 0 0
6:55 pm 18:55 Cloudy 55 13 50 10 82 82 NNE 18 30 30 1016 10 16.09344 0 0
7:15 pm 19:15 Cloudy 55 13 50 10 82 82 NE 17 28 30.06 1018 10 16.09344 0 0
7:35 pm 19:35 Cloudy 54 12 50 10 88 88 NE 16 26 30.06 1018 10 16.09344 0 0
7:55 pm 19:55 Cloudy 54 12 50 10 88 88 NE 12 19 30.06 1018 10 16.09344 0 0
8:15 pm 20:15 Cloudy 54 12 50 10 88 88 ENE 12 19 30.06 1018 10 16.09344 0 0
8:35 pm 20:35 Cloudy 54 12 50 10 88 88 ENE 13 20 30.06 1018 7 11.265408 0 0
8:55 pm 20:55 Cloudy with Mist and Fog 54 12 52 11 94 94 ENE 9 15 30.06 1018 5 8.04672 0 0
9:15 pm 21:15 Cloudy with Mist and Fog 54 12 52 11 94 94 ENE 9 15 30.09 1019 5 8.04672 0 0
9:35 pm 21:35 Cloudy 54 12 52 11 94 94 ENE 8 13 30.09 1019 7 11.265408 0 0
9:55 pm 21:55 Cloudy with Mist and Fog 54 12 52 11 94 94 ENE 8 13 30.09 1019 5 8.04672 0 0
10:15 pm 22:15 Cloudy with Mist and Fog 54 12 52 11 94 94 ENE 8 13 30.09 1019 5 8.04672 0 0
10:35 pm 22:35 Cloudy with Nearby Thunderstorms 54 12 52 11 94 94 ENE 7 11 30.09 1019 5 8.04672 0 0
10:55 pm 22:55 Cloudy with Nearby Thunderstorms 54 12 52 11 94 94 ENE 7 11 30.09 1019 3 4.828032 0 0
11:15 pm 23:15 Cloudy with Thunderstorms 54 12 52 11 94 94 ENE 8 13 30.09 1019 1.5 2.414016 0 0
11:35 pm 23:35 Cloudy with Thunderstorms 54 12 52 11 94 94 E 7 11 30.09 1019 1 1.609344 0 0
11:55 pm 23:55 Cloudy with Mist and Fog 54 12 54 12 100 100 E 6 9 30.09 1019 0.75 1.207008 0 0

Powered by AerisWeather